SKYNET 4C

Last updated on Thu Jul 03 2025 00:02:43 GMT+0000 (Coordinated Universal Time)

1 20776U 90079A 25183.57335497 .00000125 00000+0 00000+0 0 9995 2 20776 13.4512 352.1943 0002809 104.1803 64.2616 1.00273061127389
UTC large
Height (km)
Speed (km/s)
/
Latitude / Longitude
Inclination (degrees)
Orbital Period (minutes)
Azimuth
Elevation
Range (km)
Doppler Factor

Next 0 passes for location: London (51.5072 / 0.1276)

Sorry there are no passes over London.